Location: Belfast
(54.5830°N, 5.9330°W)
Time: 11:08:18
(UTC+00:00)

Coronas F rocket - Visible Passes

Search period start: 03 March 2015 00:00
Search period end: 13 March 2015 00:00
Orbit: 377 x 395 km, 82.5° (Epoch: 02 March)

Date Brightness Start Highest point End Pass type
(mag) Time Alt. Az. Time Alt. Az. Time Alt. Az.
03 Mar 2.4 05:19:55 10° N 05:22:56 53° ENE 05:25:54 10° SSE visible
03 Mar 1.5 18:53:03 10° S 18:56:08 79° E 18:59:15 10° NNE visible
03 Mar 5.5 20:29:19 10° WNW 20:29:44 10° WNW 20:30:02 10° NW visible
04 Mar 4.8 04:25:10 10° NNE 04:27:11 16° ENE 04:29:16 10° ESE visible
04 Mar 2.1 05:57:34 10° NNW 06:00:27 37° W 06:03:17 10° SSW visible
04 Mar 3.9 19:31:03 10° SW 19:33:48 28° WNW 19:36:33 10° N visible
05 Mar 2.5 05:02:01 10° N 05:05:01 51° ENE 05:07:58 10° SSE visible
05 Mar 5.4 20:11:03 10° WNW 20:11:45 10° WNW 20:12:20 10° NW visible
06 Mar 4.8 04:07:14 10° NNE 04:09:11 16° ENE 04:11:11 10° ESE visible
06 Mar 2.0 05:39:35 10° NNW 05:42:28 39° W 05:45:18 10° SSW visible
06 Mar 3.9 19:12:58 10° SW 19:15:45 29° WNW 19:18:31 10° N visible
07 Mar 2.5 04:43:57 10° N 04:46:56 48° ENE 04:49:53 10° SSE visible
07 Mar 3.5 06:18:10 10° WNW 06:19:38 13° W 06:20:58 10° WSW visible
07 Mar 5.3 19:52:41 10° WNW 19:53:36 11° WNW 19:54:25 10° NW visible
08 Mar 4.8 03:49:09 10° NNE 03:51:01 15° ENE 03:52:56 10° ESE visible
08 Mar 1.9 05:21:24 10° NNW 05:24:19 41° W 05:27:11 10° SSW visible
08 Mar 3.8 18:54:45 10° SW 18:57:33 31° WNW 19:00:21 10° N visible
09 Mar 2.6 04:25:44 10° N 04:28:42 45° ENE 04:30:48 17° SE visible
09 Mar 3.4 05:59:50 10° NW 06:01:24 13° W 06:02:50 10° WSW visible
09 Mar 5.2 19:34:13 10° W 19:35:18 11° WNW 19:36:18 10° NW visible
10 Mar 4.8 03:30:56 10° NNE 03:32:42 15° ENE 03:33:16 14° ENE visible
10 Mar 2.1 05:03:05 10° NNW 05:05:30 39° WNW 05:05:30 39° WNW visible
11 Mar 3.4 04:07:23 10° N 04:09:13 29° NNE 04:09:13 29° NNE visible
11 Mar 3.9 05:41:21 10° NW 05:41:29 11° NW 05:41:29 11° NW visible
11 Mar 5.1 19:15:35 10° W 19:16:51 12° WNW 19:18:01 10° NW visible
12 Mar 5.0 03:12:33 10° NNE 03:13:16 12° NE 03:13:16 12° NE visible
12 Mar 3.6 04:44:37 10° NNW 04:45:32 18° NNW 04:45:32 18° NNW visible
